GFSSW_250_spd_168.txt.gz
Wind_Speed
6 2 3 5 7 5 9 11 5 5 4 5 8 8 8 7 7 6 6 7 9 12 12 7 6 8 10 12 16 17 16 16 18 19 23 23 26 29 32 32 32 33 33 35 33
12 8 4 3 5 6 6 7 10 6 3 5 7 8 7 6 6 5 6 7 8 10 10 8 10 11 11 10 9 12 15 19 21 22 25 27 29 30 30 31 31 31 33 31 29
18 14 10 6 5 5 6 6 8 9 7 6 7 9 7 6 6 6 7 9 9 11 14 14 12 9 8 9 9 7 9 10 13 18 21 23 25 27 28 30 31 30 28 26 28
24 21 17 12 8 7 7 9 9 9 10 9 9 10 7 7 9 10 11 12 13 17 16 13 12 11 13 13 11 10 9 9 8 9 13 16 18 20 20 20 21 22 24 23 24
31 28 24 19 14 11 9 10 11 11 11 11 12 11 11 11 12 16 17 17 17 16 15 16 16 16 17 15 14 15 14 12 10 7 6 9 12 14 14 15 16 17 16 14 15
38 34 31 26 21 17 14 11 14 14 14 13 14 15 16 14 17 21 22 21 20 18 19 21 22 22 21 19 19 20 19 18 14 13 14 11 9 7 5 5 6 7 10 11 10
43 41 37 33 28 24 19 16 15 17 17 14 14 16 17 18 20 21 22 22 20 19 20 23 26 26 26 27 27 25 25 22 21 19 18 17 17 18 13 10 9 7 6 6 5
48 46 43 40 36 31 26 22 19 20 21 18 15 18 20 20 20 23 24 22 21 20 20 23 25 24 23 25 25 25 27 30 29 27 25 24 21 17 16 15 17 18 15 11 9
53 52 49 46 43 39 33 29 26 23 24 23 20 19 19 20 21 25 26 23 21 21 21 23 26 26 27 26 26 26 25 27 26 27 28 28 27 28 26 21 21 25 24 21 18
58 57 55 52 50 46 41 36 32 30 27 28 25 23 21 22 23 24 25 22 20 24 25 24 23 24 27 26 27 30 30 30 24 23 22 26 27 28 30 29 30 29 30 30 28
63 62 60 59 55 53 49 44 40 36 34 30 30 26 26 26 24 24 23 22 22 25 25 25 24 23 22 23 24 26 31 32 28 27 25 25 27 30 28 26 25 28 30 30 29
68 67 65 63 62 59 56 52 47 43 38 37 34 31 30 29 28 26 25 26 26 25 25 26 26 24 22 20 19 24 25 28 27 25 25 24 26 27 31 32 29 28 27 27 25
72 71 71 68 66 66 62 59 55 50 45 41 40 36 35 33 32 30 30 29 28 28 25 25 26 24 22 22 21 20 23 23 22 21 21 21 20 23 24 26 27 26 22 22 22
76 76 75 75 71 70 69 67 63 58 52 48 45 43 41 39 36 35 34 29 29 31 27 23 23 22 21 19 19 20 21 22 23 19 19 17 16 16 19 20 20 19 21 19 19
77 80 80 79 78 75 74 73 70 66 60 55 49 46 45 42 42 39 38 35 33 31 31 32 27 24 22 20 19 17 17 18 21 20 18 18 18 15 16 18 16 13 12 12 12
74 80 85 84 83 82 80 79 77 74 64 59 55 51 49 49 48 44 42 40 37 34 35 28 25 23 20 18 19 19 16 15 10 14 15 16 16 16 15 16 17 15 14 10 8
81 81 84 89 89 87 87 84 83 76 69 66 63 59 56 55 51 49 43 38 36 36 35 33 29 27 24 22 19 17 14 14 13 8 5 7 11 12 12 12 12 11 12 13 12
89 88 85 89 93 94 92 91 84 77 76 74 71 68 63 61 57 54 50 46 44 44 44 41 34 30 29 28 25 20 17 14 9 10 7 4 2 4 6 6 5 4 5 6 7
98 94 93 91 94 98 98 91 84 83 82 81 80 76 72 68 63 59 52 50 49 47 47 44 42 37 36 33 27 23 21 16 14 14 11 9 7 6 4 2 2 4 6 7 9
108 103 101 96 96 97 100 92 91 90 90 87 86 83 79 75 70 64 59 56 53 52 51 51 47 43 42 35 28 25 22 19 21 20 18 16 15 12 10 9 9 9 11 13 13
120 113 106 106 102 98 96 96 97 94 98 93 90 88 85 81 77 72 67 64 61 59 55 53 51 48 42 33 30 29 27 27 27 25 24 22 19 17 15 14 14 15 16 17 18
127 125 117 113 107 98 95 95 101 100 102 99 94 90 90 88 83 79 73 71 70 67 61 59 57 52 45 44 39 36 33 31 27 28 25 24 23 23 22 19 18 19 20 23 25
127 126 126 121 112 104 100 98 98 101 103 102 101 97 93 91 88 85 81 80 76 72 67 65 59 58 55 45 42 37 36 34 32 31 32 28 27 27 28 26 24 24 26 28 29
141 132 130 126 121 110 104 103 97 99 104 108 105 101 98 95 93 90 87 86 81 79 76 71 69 62 56 52 50 45 40 38 37 35 34 32 32 28 33 33 31 30 30 33 35
141 141 133 133 128 122 108 104 104 98 102 107 109 105 103 100 95 95 94 91 89 87 81 75 69 66 65 59 53 49 47 47 42 39 36 38 37 35 35 36 36 33 33 36 38
123 144 143 135 129 124 117 109 108 107 102 101 108 110 108 105 103 100 100 97 95 90 86 81 74 73 69 64 60 57 53 48 44 43 40 40 38 41 40 39 37 37 39 42 44
103 133 147 140 135 129 125 118 112 107 101 101 105 114 110 109 106 100 100 96 94 93 89 85 80 77 72 70 68 63 53 50 50 48 45 44 45 47 45 45 43 44 46 48 51

GFSSW_250_spd_174.txt.gz
Wind_Speed
6 4 6 12 13 12 10 9 10 10 11 11 9 10 14 13 13 13 13 15 17 15 13 12 14 14 15 15 18 23 27 30 29 31 38 41 45 46 46 48 46 44 42 41 39
12 9 7 7 11 12 14 13 12 10 11 10 9 11 14 14 14 14 13 13 15 19 15 13 11 12 14 15 3 16 20 26 31 32 32 35 39 44 44 44 46 48 48 46 44
19 15 12 10 8 11 13 15 14 12 11 11 11 12 13 13 13 14 13 14 16 18 18 14 14 14 13 16 16 19 19 20 24 27 31 34 37 39 41 44 42 44 47 46 46
25 22 19 15 12 10 13 13 14 15 13 12 11 11 11 11 12 14 14 15 16 20 21 16 13 17 17 20 21 20 22 22 22 25 27 30 32 34 35 35 34 36 38 40 40
31 29 25 22 18 15 12 14 15 15 15 15 14 13 11 10 12 15 15 16 18 20 20 16 15 17 20 20 18 21 25 27 28 29 30 29 30 30 31 31 32 33 32 33 34
39 35 32 29 25 21 18 15 16 17 16 17 15 13 11 10 11 16 17 17 16 12 12 14 17 18 17 17 14 14 18 20 24 27 30 32 33 32 31 31 30 30 30 30 31
45 42 39 36 32 27 23 20 18 18 18 17 17 15 12 11 12 15 16 16 13 14 15 16 16 20 20 19 18 11 11 10 10 15 21 24 26 26 26 27 27 27 27 28 27
52 49 45 42 39 35 30 25 22 21 19 17 18 18 13 14 16 18 16 14 14 15 17 20 22 23 23 20 25 23 16 11 5 8 12 15 16 17 18 18 18 17 16 14 11
57 55 52 49 45 42 37 32 28 24 22 19 19 19 18 19 20 19 17 15 17 18 24 27 27 27 29 37 23 10 9 4 3 11 12 15 17 18 15 12 10 11 12 11 10
63 61 58 56 52 49 44 40 34 29 25 23 22 23 21 19 21 22 19 19 22 26 28 28 29 29 30 32 27 29 28 15 11 19 19 19 19 24 22 21 20 20 19 20 19
65 66 64 61 59 56 52 47 40 33 30 29 24 23 25 25 27 26 22 20 22 24 25 26 26 26 24 19 33 30 28 23 21 23 30 18 24 26 32 32 32 32 33 34 34
69 68 69 67 65 62 59 53 46 43 38 32 30 27 26 31 29 28 25 22 22 22 25 26 26 25 23 27 30 34 24 23 24 23 26 26 29 31 33 34 32 31 29 29 27
76 73 72 72 71 68 65 59 58 48 44 37 37 33 33 31 32 31 30 27 25 25 24 23 24 25 25 23 28 29 30 27 24 22 22 25 28 29 28 28 29 29 29 24 18
82 80 78 74 75 75 71 65 64 57 51 45 41 40 33 33 33 33 31 29 27 27 27 26 24 25 27 26 27 28 27 26 28 28 28 29 28 27 26 24 24 24 25 24 19
86 86 85 81 77 79 73 77 71 66 56 54 49 48 44 39 43 39 36 31 31 29 27 29 29 28 27 25 24 23 28 26 26 25 18 23 24 23 24 22 19 19 17 18 17
88 89 91 87 85 82 80 80 76 71 59 59 54 47 45 45 42 41 37 37 38 34 33 33 33 31 30 27 26 23 22 22 21 19 21 17 20 20 19 20 17 13 11 8 11
94 92 92 93 94 86 85 88 84 71 70 65 56 55 51 53 50 45 41 37 31 30 30 30 30 31 30 30 28 27 24 23 22 20 18 17 19 18 17 16 18 17 13 11 11
103 98 96 96 98 94 93 89 82 74 73 72 67 65 58 58 55 53 49 45 41 40 43 37 31 30 30 29 28 27 27 25 25 23 21 19 19 17 16 15 13 13 10 5 5
108 106 101 101 100 101 100 91 74 79 80 80 76 73 68 64 62 61 52 50 47 44 41 41 42 42 39 36 33 31 27 29 27 24 21 20 17 15 14 12 9 6 5 3 1
118 113 108 106 105 104 103 90 84 84 89 88 85 81 76 71 68 63 59 55 52 50 50 48 50 45 46 42 39 33 34 26 23 24 21 22 19 17 15 13 11 8 7 5 7
126 122 119 113 111 106 97 94 93 92 96 97 92 88 85 80 73 68 65 63 58 56 54 52 53 51 49 42 41 37 31 27 27 26 27 23 22 20 18 16 13 11 10 12 13
133 128 127 121 116 105 99 96 99 99 101 100 95 91 90 86 81 75 70 68 67 63 57 54 55 53 49 49 45 42 37 35 32 29 26 26 23 19 17 16 15 15 15 17 20
119 136 133 129 120 110 103 100 99 100 108 101 99 95 94 91 88 82 76 75 74 70 63 60 57 57 59 57 50 44 42 40 38 36 32 30 27 23 22 20 20 19 20 22 24
99 120 142 135 126 118 110 106 103 101 112 105 102 102 100 97 91 85 82 80 76 72 72 70 66 61 56 52 52 50 48 43 38 34 31 29 32 27 26 25 26 25 26 26 28
89 105 128 143 138 132 122 113 110 110 107 110 107 103 102 99 97 94 88 86 82 79 78 74 65 62 60 62 62 56 53 48 43 38 35 37 38 34 30 31 27 29 29 32 34
81 92 102 137 146 139 132 120 112 111 110 109 107 108 108 106 103 101 98 93 88 86 81 76 68 67 66 65 65 61 56 53 48 46 43 42 40 39 34 33 34 32 33 39 39
70 84 93 112 149 148 143 131 126 122 114 110 107 109 115 117 119 111 110 104 98 94 86 80 74 74 69 65 62 64 60 56 53 51 47 45 43 44 40 37 38 40 39 43 44

GFSSW_250_spd_180.txt.gz
Wind_Speed
9 7 7 11 12 11 9 7 7 11 15 16 17 17 13 12 14 15 18 22 24 24 26 28 32 38 44 48 50 51 49 49 49 37 43 50 47 46 44 44 40 41 41 40 37
16 13 11 9 12 14 12 9 9 12 16 16 16 15 15 14 13 16 17 19 21 22 23 22 26 29 36 42 44 45 49 50 51 52 45 45 46 45 45 46 44 42 41 41 40
22 19 17 14 12 13 14 15 12 11 14 15 16 17 17 17 17 17 19 20 24 24 23 25 27 27 29 35 37 43 47 46 49 50 47 45 43 42 42 43 42 43 42 41 40
28 26 23 20 18 15 14 16 17 16 14 16 15 18 20 19 18 18 19 20 21 23 26 26 25 26 30 35 34 35 38 40 42 44 43 43 42 41 41 40 39 38 40 38 39
35 32 30 27 24 21 18 16 17 18 17 17 17 19 21 19 18 20 20 20 21 22 24 24 25 25 21 21 27 25 24 33 35 39 40 41 40 39 39 38 36 35 37 37 37
43 40 37 34 31 27 24 20 17 18 18 19 19 20 22 21 22 22 24 23 23 24 23 24 21 18 20 16 19 20 21 22 26 28 31 33 35 36 36 35 33 33 34 32 33
50 48 45 41 38 34 30 26 22 19 19 19 21 23 23 22 20 22 25 25 26 26 23 24 25 19 23 19 21 20 19 21 25 26 28 28 28 27 27 27 27 24 24 22 23
54 54 52 49 46 42 38 33 27 23 20 20 22 24 22 23 22 26 27 28 27 25 23 26 23 22 22 22 23 21 21 20 23 23 26 26 28 31 31 29 27 24 23 23 19
59 58 58 56 53 49 45 40 34 28 24 21 22 25 18 27 26 22 26 28 24 23 24 21 23 24 24 23 24 23 19 16 18 16 17 19 21 22 22 23 23 21 17 10 6
64 62 61 61 60 57 52 46 41 34 29 25 25 26 19 26 20 26 27 26 23 21 21 23 21 24 27 29 25 20 20 17 21 16 12 11 14 16 15 16 17 13 9 10 11
70 68 65 64 64 65 59 53 45 38 34 32 31 30 23 26 28 29 27 25 20 21 23 22 24 30 28 28 22 25 17 19 14 17 15 10 12 13 13 13 14 20 25 27 29
76 74 72 69 69 69 64 59 53 46 45 40 37 33 26 25 31 29 27 25 23 26 22 25 28 29 29 28 26 20 25 15 12 11 14 15 12 19 19 22 32 36 37 34 30
80 80 78 76 74 72 68 65 60 56 54 47 43 37 31 28 31 27 29 29 29 24 27 29 31 27 32 33 30 20 22 18 15 15 17 20 21 28 31 31 35 36 32 31 26
84 85 84 82 81 77 72 69 67 64 57 55 48 45 32 37 31 32 33 32 27 29 26 25 27 26 24 32 28 23 17 16 16 19 21 25 32 36 41 35 31 29 29 28 22
86 87 90 88 86 83 77 74 72 71 61 64 53 50 39 35 43 39 42 37 34 32 28 29 28 26 34 30 26 28 27 28 22 27 31 33 36 37 39 35 30 24 26 23 22
95 92 92 93 93 87 84 82 77 76 66 67 59 58 46 44 43 42 39 40 41 36 36 33 34 30 29 28 24 25 26 28 32 31 35 32 32 33 33 29 30 22 25 24 24
104 99 97 97 98 93 91 89 85 75 73 74 71 66 58 54 51 44 46 43 36 33 33 35 31 35 30 27 28 25 26 30 34 34 37 39 35 33 33 30 28 25 23 26 23
113 108 105 104 101 99 97 95 88 77 79 84 78 72 66 62 56 50 52 51 42 41 41 41 36 33 29 27 32 28 31 35 42 41 37 39 40 36 33 31 31 29 24 20 18
117 117 116 108 108 104 102 98 91 87 86 89 83 79 76 68 66 60 55 55 51 48 41 39 42 42 40 42 36 34 33 32 35 33 33 34 38 34 31 29 30 29 27 23 18
112 121 123 118 112 107 104 99 96 94 92 93 91 85 81 76 69 62 61 59 55 53 52 49 48 43 46 46 42 37 39 35 36 37 35 33 31 31 31 29 26 24 22 19 19
100 115 123 122 117 112 107 103 103 103 99 99 91 89 86 82 73 64 62 64 63 61 56 54 52 50 50 44 42 43 38 39 38 37 33 32 31 31 28 25 23 22 20 18 15
87 105 112 121 122 117 113 111 109 107 104 101 97 94 93 88 79 68 67 65 67 66 59 56 55 51 44 47 47 46 45 41 38 38 38 36 32 30 26 24 21 21 19 17 14
72 90 99 117 123 122 117 112 111 108 110 106 107 99 96 91 87 78 73 72 68 68 65 63 57 55 55 56 50 47 46 46 44 40 37 37 33 31 27 23 23 20 17 15 14
61 73 85 100 118 124 122 119 115 114 113 109 112 105 102 99 93 87 82 79 77 72 73 69 66 58 51 46 48 49 46 45 44 41 40 40 37 35 33 32 26 22 20 17 16
53 64 73 88 102 120 124 124 120 120 119 118 117 110 105 104 99 96 91 84 80 77 78 73 66 63 59 59 58 56 55 49 45 46 41 42 39 36 32 31 32 27 22 21 19
44 56 66 76 91 110 125 127 126 123 118 116 117 117 109 106 102 102 97 90 85 84 79 74 67 67 66 66 62 59 55 52 52 51 48 46 41 40 39 38 34 30 29 26 24
39 50 58 69 82 97 121 128 125 122 122 122 126 122 112 108 111 109 101 95 93 89 84 78 75 71 67 68 67 63 53 52 53 52 51 47 45 42 41 38 35 32 31 29 28

GFSSW_250_spd_183.txt.gz
Wind_Speed
11 9 7 11 11 10 9 6 5 9 11 15 16 11 11 12 15 18 20 23 25 27 30 33 40 44 49 51 52 49 49 52 54 47 45 41 36 33 35 36 37 34 33 34 34
17 15 13 11 11 13 13 10 10 10 14 16 18 14 12 10 13 15 18 21 24 27 29 30 34 43 47 51 51 50 49 50 52 52 50 53 52 50 47 45 40 40 42 41 37
23 21 20 17 14 12 13 13 12 12 15 17 19 19 17 15 12 15 17 21 23 26 26 28 32 36 41 47 49 50 51 48 50 52 55 52 48 47 45 47 44 45 45 42 39
30 27 25 23 20 17 14 14 14 14 15 18 18 19 20 19 17 15 15 17 23 26 28 31 34 35 38 44 46 47 48 48 47 48 49 49 49 47 46 44 44 42 41 41 40
38 35 31 29 27 23 20 17 16 16 18 17 20 20 23 23 20 19 19 19 19 23 27 27 29 31 36 39 42 45 47 48 48 49 50 50 50 50 48 45 42 39 38 38 37
44 43 40 36 33 30 26 23 19 18 19 21 21 22 23 23 25 24 24 23 22 22 24 25 24 27 31 33 34 37 41 43 44 47 50 49 47 46 45 43 42 39 36 33 31
49 48 47 45 41 37 34 29 25 22 20 22 23 24 25 24 24 25 25 24 24 24 23 26 29 27 28 29 28 27 28 32 30 36 41 43 44 43 42 40 37 35 33 32 27
54 52 52 52 49 45 40 36 32 28 24 22 24 26 26 24 29 28 25 25 24 25 27 27 29 30 29 26 24 23 23 27 29 32 35 36 36 37 39 38 33 29 24 19 16
61 59 56 55 56 54 48 43 39 34 30 25 26 27 21 25 33 26 27 27 25 24 24 26 28 30 30 24 27 26 26 29 28 28 28 30 31 32 32 31 27 23 20 17 17
69 65 63 60 59 60 56 51 46 40 37 33 31 30 22 27 34 29 31 29 28 24 25 25 26 32 29 24 26 24 27 25 22 23 23 26 26 29 29 29 26 22 16 14 9
74 73 71 67 65 62 61 58 53 47 45 41 40 37 27 33 35 31 33 29 25 25 28 26 31 33 27 29 27 22 25 23 22 20 19 18 21 19 18 20 18 16 15 16 21
78 78 77 75 74 69 64 63 60 56 53 49 47 40 31 29 33 29 33 31 26 30 27 28 35 28 28 30 24 22 24 23 19 20 17 18 19 16 15 16 15 19 26 30 30
82 83 82 81 80 77 71 66 65 64 59 55 51 47 36 29 32 28 35 35 30 28 29 34 31 25 29 27 27 23 24 26 19 15 20 16 18 24 21 25 21 32 36 33 31
87 87 87 86 84 82 79 73 69 69 64 63 60 55 40 39 34 31 38 37 32 28 28 28 27 25 28 23 19 27 19 17 16 19 19 16 23 25 32 38 40 36 36 31 27
92 92 92 91 90 86 84 81 77 73 69 73 64 61 49 41 47 36 44 40 38 29 28 30 32 30 32 29 16 26 16 12 16 21 23 30 29 36 40 43 42 36 33 31 29
99 96 97 97 91 91 90 88 84 81 72 75 69 68 57 51 51 42 40 41 39 30 33 33 32 29 28 27 27 31 23 11 17 19 28 35 39 41 40 34 39 36 34 31 31
108 103 102 98 96 94 96 94 91 83 77 81 77 71 66 59 56 46 44 42 37 31 32 34 28 29 23 18 14 21 19 17 26 31 37 41 44 41 36 30 31 35 32 35 34
109 113 108 102 98 101 98 98 94 86 86 85 81 76 73 67 63 50 50 47 42 37 40 37 32 28 21 19 20 27 26 28 32 39 41 41 39 37 31 27 30 31 31 28 31
113 116 113 107 104 104 104 98 94 92 92 91 87 84 79 74 69 55 52 50 48 44 43 39 39 40 36 37 30 33 29 32 33 38 37 38 39 36 32 30 30 32 33 28 25
99 116 119 115 113 110 108 102 98 98 99 99 93 90 85 81 74 60 55 54 51 48 49 48 49 43 44 42 39 38 43 36 31 35 36 38 37 35 35 33 31 31 30 27 24
80 100 115 120 122 119 113 106 105 106 105 105 100 95 94 86 78 67 57 57 58 57 53 53 52 48 45 39 38 40 39 39 34 38 39 37 38 35 35 33 34 26 24 23 19
64 78 98 116 123 123 118 113 108 108 106 107 105 100 99 90 84 75 66 64 61 61 55 55 55 49 43 44 48 49 46 44 45 40 42 40 39 36 36 34 31 27 24 21 18
52 62 80 100 117 123 124 120 113 113 110 112 112 106 101 95 89 81 75 70 67 64 63 60 55 51 55 56 52 50 48 45 46 45 45 43 41 39 36 34 31 27 23 20 17
43 55 67 85 100 121 128 126 120 119 115 116 116 110 105 100 93 87 82 78 72 68 67 64 60 53 51 49 50 49 47 49 52 53 47 46 41 40 37 34 30 27 24 18 15
38 49 59 72 87 103 126 136 132 126 119 116 117 114 109 103 98 92 90 85 78 76 72 69 63 57 57 58 57 56 54 54 54 55 53 49 42 41 40 37 34 30 25 19 19
34 42 51 63 76 91 107 125 138 130 122 118 119 120 112 106 102 101 97 90 86 80 78 73 67 63 63 62 61 61 60 59 57 52 53 45 45 42 38 36 32 29 26 24 25
29 37 46 57 69 82 98 113 132 130 127 120 120 122 112 109 106 105 99 95 88 84 82 75 73 70 66 67 67 66 58 56 55 53 51 41 47 45 40 37 34 30 26 25 28

GFSSW_250_spd_186.txt.gz
Wind_Speed
15 13 9 8 9 9 8 7 4 4 7 9 9 11 14 15 16 18 21 24 27 29 32 36 40 43 46 48 47 43 47 48 50 50 44 43 39 37 38 36 36 35 32 31 30
20 18 16 13 11 12 12 11 9 9 10 12 13 11 10 12 16 19 20 23 28 28 29 31 35 40 45 47 48 44 42 46 47 47 43 42 41 32 40 41 34 29 34 34 34
26 23 22 20 17 13 12 13 13 12 12 14 16 15 12 9 11 15 19 21 25 28 29 31 33 37 41 47 48 49 47 44 44 44 46 43 40 37 33 31 37 41 42 42 38
33 31 28 26 23 20 16 14 14 14 13 14 17 19 17 14 11 10 14 20 22 25 29 30 31 35 37 42 46 49 49 49 47 44 45 46 45 45 46 46 45 41 36 37 39
40 38 36 32 29 27 24 20 16 17 16 16 19 20 20 19 15 15 13 15 21 23 27 31 32 33 35 39 45 47 49 50 50 47 45 46 47 47 48 48 48 45 45 43 42
45 44 43 41 37 33 30 26 22 19 19 19 20 20 22 21 22 19 18 16 17 19 24 27 31 33 35 37 42 45 48 49 48 47 48 48 47 47 46 45 47 47 47 43 39
50 48 48 48 45 41 36 32 29 26 22 22 21 22 23 18 23 25 22 21 20 18 21 26 28 30 33 32 33 37 42 45 46 46 46 47 47 46 46 46 44 45 42 40 37
57 54 52 52 52 49 44 39 36 32 28 25 24 26 26 18 27 24 25 25 25 25 22 24 23 25 28 32 34 34 38 43 44 45 45 46 47 45 45 44 43 39 36 34 33
65 62 60 56 56 55 52 47 43 39 35 32 29 29 24 20 30 25 26 26 27 27 27 27 26 26 25 24 25 29 31 35 35 36 36 37 39 38 38 36 34 32 29 28 18
73 71 68 65 62 59 58 55 51 46 43 39 36 33 27 25 34 30 28 27 26 26 27 28 28 29 30 29 25 27 23 23 28 27 29 30 29 30 29 28 25 24 21 16 12
78 77 75 73 70 65 62 60 59 54 50 47 45 39 30 28 34 33 29 30 28 26 30 32 30 33 32 28 30 29 27 27 28 26 25 24 24 27 29 27 23 22 21 14 11
81 81 80 79 77 74 69 65 64 61 57 52 51 46 38 30 33 35 27 29 30 30 32 33 35 32 26 32 33 28 27 26 24 20 19 19 21 20 23 22 18 18 20 22 19
84 85 85 83 83 80 78 71 68 67 62 59 57 54 48 37 35 35 28 30 32 30 32 35 34 26 29 31 32 28 27 24 20 17 18 21 17 18 22 24 23 21 26 33 36
84 86 88 87 87 85 83 80 75 71 68 67 65 63 52 46 38 38 33 32 32 30 33 33 28 28 33 32 30 27 25 22 14 16 18 20 17 26 30 29 26 27 37 37 37
94 90 89 91 90 90 88 87 83 78 73 77 69 68 59 50 52 41 42 35 36 31 30 36 32 36 35 33 27 24 21 13 10 19 20 21 24 32 35 33 37 40 36 36 35
101 100 97 94 93 93 93 91 90 86 78 80 74 72 66 58 58 47 41 38 38 27 35 37 29 31 32 23 23 23 20 9 9 22 21 25 35 40 40 43 41 40 37 35 31
102 105 108 104 98 96 96 96 95 90 87 84 80 77 73 66 65 51 46 41 38 31 31 35 31 35 25 20 20 23 20 15 14 21 24 37 46 46 46 42 39 38 37 37 32
108 118 111 105 103 101 97 97 95 93 94 90 86 83 81 72 70 59 52 45 43 35 34 31 34 30 26 24 24 23 23 24 19 23 32 47 46 45 43 42 37 36 37 41 39
107 106 110 110 110 111 104 96 96 95 99 96 93 90 85 79 75 66 55 50 46 41 35 33 38 32 33 34 32 29 28 30 23 32 44 47 47 42 38 36 33 32 34 35 33
68 82 109 116 121 119 113 104 98 100 101 103 99 94 90 85 78 72 62 57 50 47 42 41 46 41 41 39 38 39 40 30 24 37 44 46 44 39 39 35 32 33 33 31 29
55 64 87 115 120 125 120 113 106 101 104 107 105 99 96 90 83 76 67 63 57 53 48 45 49 44 42 32 33 37 33 33 36 42 42 43 40 37 33 35 36 34 32 29 27
47 53 69 93 111 119 126 121 115 109 107 108 110 106 101 95 88 82 75 70 62 56 50 49 52 46 42 42 42 47 47 46 41 42 43 43 40 37 33 35 33 34 32 27 24
42 44 59 73 95 110 121 127 124 118 113 110 112 111 105 101 94 89 83 75 70 64 60 56 52 48 48 47 47 43 42 45 47 49 44 46 42 38 35 36 35 34 32 28 25
35 41 51 64 79 97 110 124 129 124 118 114 113 113 109 105 98 93 87 81 76 70 65 58 54 49 41 39 40 40 39 43 50 46 45 45 43 39 39 37 37 37 33 28 23
31 38 46 58 70 82 95 114 127 127 122 117 114 114 114 109 101 98 94 87 83 76 69 63 58 54 52 49 51 51 49 48 48 52 46 50 44 40 42 40 40 38 33 29 26
28 33 41 54 62 74 84 97 118 127 125 120 117 117 117 113 107 103 98 92 87 80 73 66 63 59 56 54 56 56 54 55 57 58 57 53 48 48 47 44 43 39 34 31 29
27 29 37 48 56 65 77 87 105 121 127 126 122 119 116 116 110 105 100 97 91 85 79 72 68 63 57 56 62 59 51 51 51 55 55 46 47 50 50 48 44 39 36 34 30

GFSSW_250_spd_192.txt.gz
Wind_Speed
21 18 17 16 13 11 8 6 2 2 3 9 13 16 19 22 24 27 29 33 39 43 45 46 44 44 42 40 38 38 37 36 35 33 32 31 34 31 32 28 25 27 27 25 26
26 24 21 20 18 15 11 9 7 3 3 4 8 13 17 19 21 23 23 25 32 39 43 45 48 45 44 41 39 39 40 38 37 37 35 34 33 32 33 31 29 30 28 28 30
32 29 28 25 23 20 17 13 9 8 7 7 6 8 12 16 17 19 21 22 25 30 38 41 44 46 46 44 42 41 42 40 38 38 37 36 34 34 34 31 33 32 33 30 30
38 36 34 31 28 26 23 20 16 11 11 11 11 11 12 11 15 18 19 20 23 25 29 37 42 44 44 43 41 40 40 40 41 39 39 39 38 38 35 35 33 32 33 31 30
44 42 40 38 36 32 30 27 23 18 14 14 15 16 16 14 12 13 19 21 21 23 26 30 36 42 42 43 42 41 41 42 41 40 39 39 40 39 37 34 33 32 31 31 29
47 46 45 45 43 40 37 34 30 26 21 17 17 19 20 20 19 16 15 19 21 21 24 28 31 35 38 42 42 42 41 41 42 42 41 39 37 38 38 32 29 28 28 30 30
54 51 49 48 47 47 44 42 38 33 29 24 20 21 24 23 23 20 19 17 19 22 23 26 26 30 33 38 40 40 39 39 40 41 41 42 38 37 34 31 28 27 25 25 26
61 60 58 55 52 51 51 48 45 41 36 32 27 23 27 23 27 26 24 23 19 19 22 22 23 22 24 27 31 34 37 37 38 38 39 39 39 38 35 33 31 30 29 28 26
69 67 65 63 61 56 55 55 52 48 44 40 36 31 29 25 28 27 29 28 23 20 20 22 23 21 22 22 23 25 28 30 31 33 35 35 36 37 37 34 31 29 27 26 21
73 73 72 69 68 66 62 59 58 55 52 47 42 39 36 27 31 30 30 31 29 24 23 22 21 22 22 22 21 23 25 25 27 29 31 32 31 33 34 34 31 30 25 19 14
73 74 76 75 75 73 70 67 64 61 58 54 50 45 44 34 31 32 31 31 32 30 29 26 23 24 23 22 23 22 23 24 23 22 24 25 26 27 28 28 26 22 15 13 12
74 76 77 78 79 79 77 75 71 67 64 61 57 54 52 41 34 34 34 33 32 34 33 30 31 29 22 23 22 23 24 22 22 22 20 21 23 24 23 23 21 19 17 16 16
83 82 81 80 82 82 83 81 79 75 71 68 64 62 58 49 43 38 37 34 34 35 34 36 36 25 24 28 28 27 25 23 22 20 20 21 22 22 22 22 21 20 22 19 22
87 89 90 87 83 86 86 86 84 82 77 76 72 67 63 57 49 46 41 38 35 36 38 37 26 25 26 28 30 28 27 27 25 23 21 22 22 23 23 22 21 22 23 26 28
83 94 94 95 92 87 88 89 88 87 85 82 78 73 69 63 60 51 48 42 38 39 37 38 34 35 32 35 36 31 25 28 25 27 24 24 22 22 22 20 22 24 29 38 41
79 89 93 98 102 97 92 91 92 92 90 87 84 81 76 69 66 60 53 50 43 39 41 40 33 35 39 35 28 22 25 26 26 27 26 25 22 24 22 21 26 32 40 47 43
67 81 93 101 105 105 102 98 96 94 91 93 91 87 84 78 71 68 59 56 45 41 40 42 33 34 33 29 25 23 25 24 25 27 26 24 23 24 26 28 33 40 48 45 44
58 68 81 95 111 109 108 107 103 96 100 96 96 94 91 86 78 74 66 61 55 48 47 42 34 31 31 31 31 34 33 30 31 27 28 26 25 26 35 37 39 51 47 43 43
56 60 69 82 102 116 113 113 112 109 99 98 99 100 96 93 86 79 72 68 63 57 49 43 41 32 32 37 34 33 27 34 31 28 25 28 28 35 47 46 52 51 47 43 39
54 57 61 70 86 105 120 119 116 114 107 101 104 105 101 97 92 86 81 75 71 62 56 52 47 39 37 34 30 27 40 35 31 27 26 29 30 40 53 53 57 51 48 44 40
47 50 55 61 72 90 115 120 121 120 113 108 106 103 104 101 97 92 90 78 74 66 59 55 47 40 33 24 30 29 28 33 33 33 36 32 38 49 57 60 57 50 47 43 41
40 44 51 56 64 76 91 107 120 116 118 116 109 108 108 106 104 99 91 82 77 72 65 59 54 43 34 38 35 36 39 42 40 31 34 37 44 57 62 60 57 52 47 43 38
37 38 43 51 54 62 76 88 102 121 118 119 117 111 110 110 108 103 96 89 81 79 73 67 57 45 42 33 26 34 37 40 42 40 36 42 51 60 62 59 57 52 47 39 38
35 35 35 43 47 53 65 78 87 104 121 124 122 117 113 113 112 107 100 94 87 81 75 69 63 48 40 35 34 40 42 42 44 38 41 48 60 64 61 58 56 51 44 42 41
31 32 32 35 43 48 56 67 77 85 113 124 127 124 119 116 114 112 105 99 93 85 80 72 65 55 49 46 44 48 50 47 46 43 45 55 65 64 60 55 51 47 44 43 42
27 27 29 32 36 42 49 59 68 77 90 126 131 129 122 119 118 116 106 105 97 89 82 75 71 63 54 48 49 47 49 52 50 47 53 61 66 62 57 52 46 43 42 42 42
23 23 22 27 29 34 43 54 62 70 79 106 130 128 127 125 119 115 112 105 100 94 85 80 76 66 56 52 54 53 46 48 52 51 59 63 61 58 55 52 47 44 45 42 43

GFSSW_250_spd_195.txt.gz
Wind_Speed
24 22 20 17 14 12 8 6 4 1 2 8 15 21 26 31 35 37 39 43 43 44 45 44 44 45 43 41 38 37 35 34 33 35 34 31 31 26 26 28 27 26 27 24 24
28 27 25 22 19 17 14 9 6 5 5 7 11 16 19 23 27 29 32 37 40 44 46 45 46 45 44 42 40 38 38 37 37 36 36 34 33 31 29 29 30 27 28 29 27
32 31 29 28 25 22 19 15 11 8 9 10 12 14 17 20 22 23 26 30 34 39 45 48 47 48 46 44 40 40 40 40 39 38 37 37 36 34 33 31 30 30 29 28 27
40 37 35 33 31 28 25 21 18 13 11 13 15 15 16 18 20 21 24 25 27 31 39 44 46 47 48 46 44 44 43 41 42 41 39 38 38 37 34 32 33 32 31 28 28
45 44 42 40 38 36 32 28 25 20 16 15 17 18 19 17 17 22 22 24 26 28 30 37 44 46 46 47 47 46 44 42 42 42 41 39 39 39 37 36 33 33 29 28 27
48 47 46 46 44 42 40 37 32 28 24 19 18 21 21 22 21 18 23 24 24 26 29 30 35 42 42 42 39 45 43 41 41 42 43 40 38 37 36 34 33 29 27 25 27
56 53 50 48 47 47 47 45 42 36 32 27 23 22 25 25 25 23 19 20 24 24 25 29 31 33 38 38 44 44 42 39 38 40 42 41 39 36 33 30 30 30 27 23 22
62 60 59 57 53 50 49 49 48 45 40 36 30 26 28 27 29 28 24 22 22 25 26 26 27 31 32 35 38 39 38 35 33 38 40 38 34 37 36 33 30 28 25 24 25
68 68 66 64 63 59 56 53 52 51 49 44 39 33 33 29 31 31 29 26 23 23 26 26 26 26 27 29 31 33 35 31 19 37 38 38 47 40 37 36 34 32 28 24 21
71 71 72 72 69 67 65 62 58 55 54 52 46 41 38 33 31 33 34 31 29 24 22 25 28 28 26 25 24 27 28 37 45 37 40 39 37 37 36 34 33 30 25 22 22
69 71 74 76 76 75 72 69 67 63 59 56 51 50 45 40 37 37 35 33 32 29 27 25 23 26 29 28 28 25 29 30 31 32 33 33 31 30 30 29 27 24 23 23 17
76 74 74 76 79 81 80 77 75 69 67 63 58 55 51 49 40 37 37 36 34 35 34 25 26 29 26 27 29 31 31 28 27 27 26 25 23 23 23 23 23 21 20 19 17
81 82 82 81 82 83 85 84 82 78 74 69 66 62 58 55 49 44 41 39 37 39 36 33 37 30 25 25 24 25 26 25 24 23 21 21 20 22 22 22 22 22 22 21 21
83 86 88 89 89 88 87 88 87 86 80 79 74 71 63 61 54 51 47 43 41 39 39 41 37 28 24 24 26 25 24 22 23 22 21 22 24 27 24 24 24 23 24 25 26
80 80 87 92 95 96 94 92 91 90 87 88 79 73 73 65 68 58 55 50 44 42 42 42 34 31 29 31 31 31 27 28 27 25 25 23 25 25 24 24 25 25 27 29 29
79 76 76 84 93 98 102 99 96 96 91 92 86 84 80 75 70 63 60 55 51 47 43 44 39 37 38 40 35 32 29 31 29 27 27 26 23 21 23 24 27 27 28 31 31
74 74 74 76 84 96 103 107 104 97 96 97 96 91 87 82 76 70 65 61 56 48 42 44 40 39 40 36 32 25 28 31 29 28 29 26 23 20 21 27 28 29 32 38 38
66 66 65 67 77 87 96 110 107 101 104 106 97 96 93 92 84 76 71 65 62 55 53 49 43 38 38 34 35 32 35 35 33 30 28 28 26 26 31 30 30 31 37 44 47
59 60 62 64 66 81 99 101 108 116 112 96 95 100 102 99 93 85 79 71 68 64 56 50 46 44 42 41 40 37 35 38 37 33 26 13 31 29 37 35 33 35 44 51 49
49 52 57 58 63 70 86 100 111 108 110 105 109 109 107 102 100 92 85 77 73 70 67 58 52 43 41 41 38 36 42 38 34 29 30 42 37 36 35 37 35 42 50 53 50
43 45 52 50 57 61 73 95 106 108 114 114 113 113 109 110 102 99 92 90 86 79 71 63 56 48 44 35 37 36 33 30 31 34 35 32 34 34 34 37 42 49 55 53 52
40 42 45 44 49 59 67 79 88 111 117 118 118 115 114 112 105 104 101 99 82 76 71 63 61 54 40 40 42 41 38 36 32 32 41 38 34 36 37 44 52 56 56 54 53
37 38 40 40 44 52 57 69 81 99 115 116 121 119 118 115 109 111 111 92 84 81 77 76 66 62 51 44 43 36 37 35 36 41 43 36 37 38 44 52 58 59 57 55 50
33 34 37 37 37 45 50 59 72 88 104 124 123 125 122 117 114 114 107 97 93 87 79 74 69 63 50 42 34 37 37 34 38 42 42 38 35 35 45 58 62 60 59 54 50
32 32 34 31 32 37 46 53 64 78 88 106 126 129 124 120 117 115 112 104 100 91 91 83 77 70 58 50 48 45 43 38 37 44 41 37 37 23 50 62 64 61 59 53 49
31 28 32 31 29 32 43 49 57 68 82 92 114 121 127 124 122 123 122 113 112 101 96 84 75 73 65 58 50 47 46 45 45 44 47 43 55 51 55 68 68 64 58 54 49
27 24 28 27 26 30 39 47 55 64 76 84 95 117 129 128 129 125 115 110 106 98 93 84 80 76 71 64 54 49 44 45 49 49 50 44 49 52 54 70 68 65 59 55 51